HUBBLE
1 20580U 90037B 10189.12550785 .00000406 00000-0 18222-4 0 5980
2 20580 028.4681 103.1700 0003373 068.1193 291.9745 15.00995398907903
ISS
1 25544U 98067A 10190.00027912 .00006815 00000-0 54849-4 0 4755
2 25544 051.6461 118.9352 0010301 057.8761 044.0550 15.72282046666905
CO-58
1 28895U 05043F 10188.61154042 .00000116 00000-0 33693-4 0 6257
2 28895 098.0127 072.4103 0016926 219.2510 140.7466 14.59907667249964
FALCON
1 30776U 07006E 10188.59855289 .00000442 00000-0 34600-4 0 08777
2 30776 035.4341 280.3668 0001649 338.5622 021.5025 15.03708471183134
MAST
1 31126U 07012K 10188.66624523 .00000088 00000-0 30134-4 0 9075
2 31126 097.9362 229.6185 0094547 161.8316 198.6292 14.53600126171036
CAPE1
1 31130U 07012P 10188.80659317 .00000199 00000-0 56432-4 0 09291
2 31130 097.9389 227.1213 0102252 169.2891 191.0491 14.52195989170658
COMPASS
1 32787U 08021E 10189.30316139 .00000265 00000-0 40074-4 0 7173
2 32787 097.8934 253.7703 0015149 213.2804 146.7410 14.81903856118622
AAUSAT2
1 32788U 08021F 10188.69652965 .00000591 00000-0 80970-4 0 07121
2 32788 097.8930 253.3040 0014571 216.8269 143.1916 14.82049102118540
DO-64
1 32789U 08021G 10188.77089967 .00000584 00000-0 79822-4 0 07291
2 32789 097.9000 253.8740 0014951 214.0523 145.9695 14.82201584118556
CO-66
1 32791U 08021J 10188.18014593 .00000014 00000-0 85240-5 0 07113
2 32791 097.8952 252.6761 0015257 216.1249 143.8913 14.81683481118416
RS-30
1 32953U 08025A 10189.61999529 .00000010 00000-0 00000 0 0 8513
2 32953 082.5003 016.3483 0019864 056.9223 303.3759 12.43006185 96401
TACSAT-3
1 35001U 09028A 10189.87316863 .00002838 00000-0 70184-4 0 3280
2 35001 040.4563 083.8228 0020301 170.7169 189.4026 15.41966089 63986
PHARMSAT
1 35002U 09028B 10188.84850495 .00002849 00000-0 69168-4 0 03160
2 35002 040.4684 087.9055 0022910 166.1340 194.0099 15.42471218063845
HAWKSAT1
1 35003U 09028C 10189.87796487 .00005487 00000-0 11476-3 0 3344
2 35003 040.4608 075.8783 0021724 190.9384 169.0926 15.45734782 64079
CP6
1 35004U 09028D 10188.89429528 .00007575 00000-0 15186-3 0 03314
2 35004 040.4627 080.7370 0020730 187.2259 172.8198 15.46616316063923
AEROCUB3
1 35005U 09028E 10189.83961455 .00020477 00000-0 32597-3 0 3726
2 35005 040.4709 071.4797 0019270 214.8747 145.0800 15.52520464 64110
DRAGNSAT
1 35690U 09038B 10076.22711312 .05715194 12509-4 31481-3 0 3162
2 35690 051.6170 315.4586 0004999 310.9891 057.3269 16.42150010 36561
POLLUX
1 35693U 09038E 10087.99866888 .23496735 12787-4 17715-3 0 3529
2 35693 051.6099 254.5746 0006270 294.4866 097.5899 16.52338462 38395
CASTOR
1 35694U 09038F 10189.87826505 .00098115 15952-4 12777-3 0 5383
2 35694 051.6348 083.6132 0000444 218.0385 142.0603 16.06859735 54542
METEOR-M
1 35865U 09049A 10189.80873597 .00000176 00000-0 10000-3 0 4538
2 35865 098.7561 243.4520 0002329 326.5986 033.5009 14.21830860 41794
RS-38
1 35869U 09049E 10189.70752958 .00000177 00000-0 10000-3 0 4618
2 35869 098.7557 243.3863 0004284 313.1723 046.9049 14.21984690 41787
